PICOSAT 1&2 (TETHERED)

Satellite information

Favourite Embed

Satellite Type and Status

PAYLOADIN ORBIT

Key statistics

Satellite PICOSAT 1&2 (TETHERED) at a glance.

Uptime

9232

Days in orbit

Revolutions

≈ 14.5

Per day

Orbit

SSO

Sun Synchronous Orbit

Inclination

100.2

Latest

Satellite identification and parameters

Extended collection of information and parameters for PICOSAT 1&2 (TETHERED).

Object identification

Identified? True

Debris? False

Object name: PICOSAT 1&2 (TETHERED)

International designator: 2000-004H

Object number (NORAD): 26080

Object ID (CCSDS): 26080

Country: UNITED STATES OF AMERICA (US)

Current information (Y/N): Y

RCS size: SMALL

Orbital parameters

Period: 99.525 minutes

Inclination: 100.1987 deg

SMA: 7114.016 km

Apoapsis: 756.474 km

Periapsis: 715.288 km

RAAN: 73.1336 deg

Eccentricy: 0.0028947

Argument of periapsis: 252.6237 deg

Mean anomaly: 107.1783 deg

Mean motion: 14.46873321 rev/day

Mean motion (dot): 0.00001281 rev/day2

B* drag term: 0.00036829 1/REarth

Two-line elements (TLE)

Creation date: May 6, 2025, 3:54 a.m.

Reference frame: TEME

Reference center: EARTH

Epoch: May 5, 2025, 6:53 p.m. UTC

TLE line 0: 0 PICOSAT 1&2 (TETHERED)

TLE line 1: 1 26080U 00004H 25125.78729156 .00001281 00000-0 36829-3 0 9993

TLE line 2: 2 26080 100.1987 73.1336 0028947 252.6237 107.1783 14.46873321327989

Live tracking on map

Real-time ground track for satellite PICOSAT 1&2 (TETHERED).

In-orbit conjunctions

A list of the most updated potential collisions computed for object PICOSAT 1&2 (TETHERED).

Target Orbit TCA Probability of collision Miss distance Type
DMSP 5D-2 F13 DEB SSO 2025-03-14 02:29:23 0.0001641951 236.0 (m) DEBRIS
NOAA 16 DEB SSO 2025-02-15 13:47:07 0.0002719411 198.0 (m) DEBRIS
FENGYUN 1C DEB SSO 2025-02-10 04:26:57 0.0001151206 909.0 (m) DEBRIS
SCOUT X-4 DEB LEO 2024-12-13 04:29:31 0.0002036693 105.0 (m) DEBRIS
FENGYUN 1C DEB SSO 2024-11-19 12:00:03 0.0001917691 719.0 (m) DEBRIS

Associated space launch

The JAWSAT (Joint Air Force Academy / Weber State University Satellite) project was developed by students working alongside aerospace professionals. Initially designed with a pulsed-plasma thruster to train Air Force Academy cadets (see JAWSAT), the mission has since evolved to include the efforts of several universities, local aerospace companies, the Air Force Academy, the Air Force Research Laboratory, and NASA. Utilizing breakthrough technologies, JAWSAT deployed four satellites when it reached orbit. The onboard imaging system recorded the deployment of each payload with its six digital cameras. The first free-flying Academy satellite, FalconSat-1 carried the CHAWS (Charging Hazards and Wake Studies) experiment developed by the Physics Department at the Academy.

PICOSAT 1&2 (TETHERED) was lifted into orbit during the mission ‘Minotaur I | JAWSAT & FalconSat 1’, on board a Minotaur I space rocket.

The launch took place on Jan. 27, 2000, 3:03 a.m. from Space Launch Complex 8.

For more information about the launch, click the button.

Launch to space Minotaur I | JAWSAT & FalconSat 1
Minotaur I | JAWSAT & FalconSat 1

Agency: N/A

Status: Launch Successful

Launch date: Jan. 27, 2000, 3:03 a.m. UTC

Rocket: Minotaur I

Launch pad: Space Launch Complex 8

Location: Vandenberg SFB, CA, USA

...

Latest news about this satellite

There are no fresh news available about this satellite. Check back as we update our databases every day.


Newsletter sign-up

Weekly statistics, charts and insights to help you stay on top of the space industry.